Вернуться в каталог

ARIANE 2 DEB

LostGTO
NORAD 40786·DEBRIS·🇫🇷 France

Запущен Jan 27, 1989 с Guiana Space Centre

Loading…

TLE

УстаревшееSource: Space-Track

Эпоха: Jan 19, 2020, 07:29 UTC

1 40786U 89006CF  20019.31220245 -.00000138  00000-0  66675-3 0  9995
2 40786   8.5501   1.9239 7144771 266.1716 294.4955  2.26393877132078

Отслеживайте ARIANE 2 DEB в реальном времени с AllMySat

Download on the App Store